STARLINK-1928 (46758 NORAD) Tracking and Keplerian Element Data

This shows tracking and keplerian element data for the satellite.

Feedback or suggestion? Click here.




ElementValue
Catalog46758
NameSTARLINK-1928
Epoch Orbit562
Epoch Day331.16668981
Epoch Year2020
RAAN0.7566
Inclination53.055
Eccentricity0.0001409
Argument of Perigee70.0311
Mean Anonmoly151.3823
Mean Motion15.62752546
Decay Rate0.00036189
L11 46758U 20074V 20331.16668981 .00036189 00000-0 39931-3 0 9992
L22 46758 53.0550 0.7566 0001409 70.0311 151.3823 15.62752546 5629

Live tracking and technical data element details for STARLINK-1928 (NORAD 46758). STARLINK-1928 can be tracked NOW for your location showing map with azimuth and elevation plus other details from your city location.

Track the satellite on the map from your city or location and see movement details for azimuth, elevation, latitude, longitude, range, height, and movement on the map or in text.







IsCatalogInMostPopularTable: catalog: 46758, numindb: 6
Update: records affected: 1



GetName: 46758 STARLINK-1928

Hit Count: updated at: Thu, 26 Nov 2020 17:45:40 GMT